Theta_e
289 289 285 285 284 285 286 288 284 288 288 292 294 292 295 295 294 293 294 291 291 291 290 287 287 288 290 291 291 290 289 288 288 287 286 286 285 284 284 282 282 281 281 280
286 289 289 285 285 286 287 288 288 289 288 296 295 294 291 293 293 294 293 293 293 292 290 289 288 288 289 290 290 289 289 288 288 285 284 285 284 283 282 281 281 280 280 280
284 287 285 283 287 288 289 289 288 285 291 295 294 295 296 295 292 295 295 296 296 294 292 291 290 289 288 289 289 286 287 287 286 284 283 283 283 282 281 280 280 280 280 279
284 284 278 288 292 293 291 292 293 292 293 295 296 299 298 296 295 295 294 294 295 296 294 292 290 288 288 287 287 285 286 285 284 283 283 282 281 281 281 280 280 279 279 279
282 283 286 284 287 288 287 289 294 294 295 297 297 292 296 297 295 298 296 294 294 293 292 292 290 287 285 284 284 284 284 284 283 283 281 281 280 281 281 280 280 280 280 279
284 281 278 286 292 292 290 285 295 294 294 295 293 288 294 291 289 289 289 288 288 287 287 288 286 284 283 282 281 281 282 282 282 282 281 280 281 280 281 281 280 279 279 279
283 282 285 287 283 290 283 285 282 291 294 294 292 295 289 286 287 286 286 285 284 283 283 283 283 282 281 280 280 280 280 280 280 281 280 280 280 280 280 279 279 279 279 279
284 281 279 284 285 286 288 283 282 284 287 287 289 288 286 285 285 284 284 284 282 281 280 280 281 280 279 279 279 278 278 278 278 279 280 281 280 280 280 280 279 278 278 278
286 285 288 290 290 293 288 285 284 285 286 284 284 284 284 284 283 282 282 281 280 279 279 278 277 278 278 277 277 277 276 276 278 279 280 281 280 280 279 280 279 279 279 279
283 285 288 290 293 294 286 285 284 285 284 283 284 284 283 283 282 281 278 279 279 280 280 280 280 280 280 281 281 282 281 280 280 280 280 281 281 281 281 281 281 280 279 280
285 285 285 289 287 289 284 284 283 284 284 283 284 283 282 281 279 279 281 281 282 280 278 276 277 277 279 282 285 284 282 281 282 282 281 281 280 282 282 282 284 282 280 280
282 283 286 286 285 286 285 284 284 283 280 280 283 283 281 279 279 280 279 279 277 274 273 270 270 269 269 273 281 281 278 279 279 279 279 278 277 275 281 281 283 284 282 280
287 284 284 284 284 285 285 286 282 283 283 283 280 280 278 276 276 276 275 274 272 270 268 267 266 266 266 267 272 272 273 274 275 275 274 274 274 274 273 277 282 280 280 280
282 281 282 283 285 286 285 281 280 278 278 279 278 276 275 272 272 271 269 269 269 267 266 265 265 263 264 267 270 268 268 268 268 268 269 269 270 270 272 275 275 275 279 279
279 279 280 279 283 282 280 279 278 276 275 274 275 274 272 270 269 268 268 267 266 265 264 264 264 262 262 264 266 265 267 265 265 266 266 267 267 267 267 268 267 266 269 271
275 274 275 279 281 279 278 277 275 273 273 271 270 268 267 265 263 262 263 265 266 261 260 261 261 260 261 262 264 264 265 264 263 263 264 264 264 264 264 264 264 263 263 262
271 275 276 277 278 277 275 276 275 273 271 270 268 266 265 263 262 261 259 259 259 258 257 258 258 258 259 261 261 260 260 260 261 261 260 260 260 260 261 261 261 260 260 261
268 269 271 274 274 272 271 271 270 269 268 267 267 266 265 265 261 259 259 258 258 256 255 256 257 258 258 258 258 259 259 257 258 257 258 258 257 258 258 258 258 258 259 263
265 265 265 265 266 266 265 265 265 265 265 265 264 261 261 260 259 257 258 258 258 258 255 253 263 258 258 260 257 258 259 257 256 255 256 256 256 255 256 257 256 256 257 257
261 262 261 260 260 262 260 260 260 259 260 260 259 258 255 253 254 253 253 250 249 251 250 251 253 253 253 254 257 255 256 255 255 253 253 253 253 252 253 253 254 253 252 252
258 258 258 257 256 256 256 257 258 256 256 257 254 254 252 251 251 249 255 254 252 250 251 253 253 253 252 253 253 251 251 252 251 250 249 249 250 249 251 248 249 251 250 251
256 256 256 255 254 254 254 255 255 255 254 253 253 253 253 251 252 251 249 251 248 251 250 251 251 252 252 254 251 250 249 249 246 247 247 246 247 248 248 249 248 250 250 250
254 254 254 254 253 252 253 253 253 253 252 252 252 252 251 251 251 255 253 251 247 251 251 250 255 257 256 251 248 247 247 248 248 248 247 247 248 247 248 249 249 250 248 249
253 253 253 254 255 254 252 251 251 251 250 250 249 249 253 253 252 249 250 251 251 251 250 255 260 259 252 247 248 248 247 247 248 246 247 250 246 246 246 248 249 249 249 250
253 254 254 254 253 251 252 253 252 252 252 251 250 250 250 251 252 249 248 249 255 250 250 253 258 255 247 245 246 247 247 246 246 245 246 246 246 246 247 247 248 249 248 249
252 252 251 252 253 254 254 254 252 252 253 250 249 249 249 250 250 249 249 250 249 250 248 248 247 247 247 247 247 247 249 249 250 250 250 251 250 250 249 249 249 250 250 250
253 254 253 252 252 252 253 253 252 250 250 251 248 248 248 249 249 249 249 249 248 248 247 245 247 249 247 247 248 249 249 250 251 251 249 249 249 250 250 251 251 250 250 250
Wind_Speed
21 16 5 8 6 10 17 27 17 31 23 34 17 12 14 12 11 10 14 7 9 10 8 7 9 10 10 10 12 12 14 14 16 13 12 12 12 12 12 13 13 14 14 12
19 19 19 13 9 13 22 25 19 29 27 28 12 8 6 11 9 14 12 12 13 10 9 10 12 12 10 12 12 12 14 15 11 12 12 12 12 12 12 12 12 13 14 14
17 17 7 10 28 26 18 16 18 21 34 16 20 17 19 13 12 18 15 17 13 11 10 10 11 10 12 11 10 13 14 12 12 12 13 12 12 12 13 14 13 15 14 14
11 8 19 17 11 22 28 29 25 20 26 29 26 25 20 10 11 14 13 12 13 11 7 7 5 7 7 8 11 11 11 10 10 12 12 12 13 13 13 12 14 14 13 13
9 16 17 4 12 15 13 26 22 26 30 32 21 6 27 12 14 18 11 6 6 5 6 6 5 5 7 7 7 8 10 10 10 11 12 12 13 13 11 10 10 10 10 11
6 10 14 14 27 9 7 12 23 17 26 26 6 9 22 5 3 3 3 1 3 4 3 3 1 5 6 6 7 7 7 7 9 9 10 10 10 10 9 8 7 7 9 8
23 19 9 9 6 6 12 12 3 12 21 19 11 11 1 2 1 1 2 5 3 5 4 2 3 6 6 5 4 5 6 7 8 8 9 9 9 9 9 10 10 8 8 7
12 17 25 1 4 13 6 1 3 4 5 7 7 5 2 1 3 4 2 3 4 5 4 5 4 5 6 6 4 6 6 7 7 9 8 9 12 10 10 10 10 8 8 6
6 1 2 7 12 15 4 5 6 5 5 5 5 5 2 3 4 3 4 4 3 4 7 6 5 4 6 3 6 7 7 7 8 8 9 9 11 11 9 9 8 8 8 7
4 7 16 18 21 19 11 10 5 6 7 8 6 6 5 4 5 4 2 4 2 6 9 8 7 7 7 5 6 8 9 9 9 10 10 10 8 9 10 9 9 9 9 9
12 14 9 11 9 8 8 8 6 5 7 8 8 6 5 5 4 4 5 5 6 7 8 9 8 9 8 5 5 7 7 7 6 5 6 6 3 5 4 2 6 6 5 6
14 5 4 6 7 8 13 13 9 7 3 3 2 9 6 5 3 4 7 8 9 9 9 7 8 8 7 7 4 6 6 3 4 4 4 4 4 5 7 4 5 4 5 6
13 4 6 6 6 5 8 8 6 6 6 6 4 6 5 5 5 8 9 11 10 8 7 6 7 8 7 6 4 6 6 4 3 4 4 4 4 4 5 2 9 6 4 5
4 2 6 5 5 7 5 6 6 6 7 6 8 8 11 10 9 11 11 9 9 8 8 7 9 10 8 7 7 7 7 5 3 3 4 4 4 4 4 6 6 3 5 8
9 7 4 4 1 3 4 8 7 8 9 10 9 10 9 11 11 10 9 9 9 9 8 7 8 8 7 6 8 8 5 3 4 4 4 3 4 4 4 4 4 3 2 8
1 3 2 5 4 7 7 5 9 8 8 10 12 11 11 11 11 8 8 7 5 7 5 6 8 6 5 5 7 6 6 8 6 4 4 4 4 4 4 4 5 3 3 2
3 4 3 3 6 5 4 6 8 6 8 10 11 11 12 12 12 10 10 8 9 9 6 5 5 5 5 5 6 4 5 5 6 5 4 3 4 4 4 4 4 3 2 2
4 4 4 3 5 8 6 8 11 11 7 9 11 9 8 8 11 9 8 8 9 10 8 6 4 4 6 6 5 5 5 5 5 5 4 5 5 4 4 5 4 4 2 1
6 6 6 8 7 8 8 7 7 11 8 8 11 10 9 9 8 6 4 6 7 9 8 8 9 7 7 7 6 3 5 6 6 4 5 6 5 4 4 5 4 4 3 3
5 6 8 7 12 8 10 9 9 10 7 10 13 11 10 8 7 7 9 10 4 3 4 5 6 8 7 8 7 4 4 5 5 4 3 4 4 4 4 4 4 4 3 3
5 7 9 10 11 10 10 10 9 9 9 10 12 10 10 7 6 3 6 8 6 5 4 7 6 5 4 4 5 4 5 5 5 3 3 3 3 2 2 2 2 2 2 2
4 6 8 9 9 11 10 11 11 11 11 11 10 10 10 9 10 10 6 6 2 3 3 4 4 5 4 7 4 5 5 4 3 3 3 2 1 0 1 2 2 3 3 3
5 6 7 8 10 11 12 12 11 11 11 7 8 8 9 5 2 5 7 5 3 4 4 2 3 7 7 4 4 3 3 3 1 0 1 2 2 3 3 3 3 3 3 4
7 8 9 9 9 12 15 9 10 10 10 6 8 6 5 7 7 5 4 3 5 6 4 4 5 6 5 3 2 1 1 0 1 2 3 3 3 3 3 3 4 4 4 5
7 7 9 10 11 9 10 9 9 9 10 9 9 8 8 5 4 1 3 3 5 4 3 5 7 6 3 2 2 3 3 2 3 3 3 3 4 4 4 4 5 5 4 5
7 6 6 9 7 6 5 6 8 5 5 7 6 5 5 5 5 4 3 4 3 4 3 3 2 2 2 2 2 3 3 4 3 4 4 4 4 5 5 5 5 6 6 6
7 7 6 7 7 6 6 6 6 5 4 5 6 4 4 4 4 4 4 3 3 2 2 2 2 3 2 2 3 4 4 4 5 4 4 5 5 6 6 6 6 6 6 6
Wind_Direction
239 241 187 196 189 198 206 228 223 251 240 258 249 239 253 266 279 285 281 264 235 243 238 224 223 222 211 210 195 184 190 194 199 190 185 180 180 178 178 179 179 174 166 170
245 237 234 233 196 211 217 234 243 253 260 258 255 277 258 235 251 261 257 259 255 242 223 225 221 221 208 210 201 186 196 205 192 181 179 182 177 173 172 174 173 169 174 173
238 238 215 233 231 230 230 224 216 233 247 267 272 264 256 262 226 243 250 256 264 255 233 227 222 211 211 200 179 189 198 195 185 178 180 181 172 169 175 179 173 180 177 171
253 250 230 239 236 224 228 238 227 248 263 261 257 270 284 233 247 252 238 243 250 262 273 257 228 199 188 171 181 184 193 187 179 179 179 172 170 178 177 177 179 177 176 172
234 233 251 285 229 209 188 245 233 229 245 257 267 318 276 254 216 244 254 238 254 278 278 276 242 200 166 164 165 177 188 184 179 176 172 171 176 175 172 170 175 175 168 156
226 241 239 230 257 179 121 248 248 211 238 252 191 233 261 96 57 73 346 330 322 312 294 299 282 148 151 151 151 173 170 166 156 161 160 170 170 166 155 157 147 133 125 142
239 259 257 249 238 124 189 242 215 192 221 239 211 231 297 351 170 15 326 335 4 37 54 8 106 114 120 126 152 136 128 134 142 148 149 145 129 134 132 126 122 124 137 152
229 243 249 103 50 205 245 288 164 201 210 203 225 249 242 275 327 6 49 50 55 83 67 35 65 99 113 118 126 117 120 124 127 128 128 134 129 128 131 136 140 146 145 142
233 239 159 347 290 287 218 213 227 227 232 202 211 225 185 144 96 53 56 68 52 99 80 46 40 66 104 108 108 109 104 108 109 107 120 131 131 131 129 134 141 150 171 183
287 268 237 222 217 244 202 191 203 204 206 196 197 178 116 98 85 85 56 68 42 80 71 57 47 60 84 100 112 121 122 128 134 134 135 139 142 151 153 167 173 177 186 198
242 264 303 259 218 220 214 233 239 210 176 182 168 144 132 126 119 98 86 63 61 66 71 56 46 48 30 48 105 112 116 120 127 125 128 140 110 159 165 164 185 179 189 181
254 211 229 280 322 207 196 197 198 170 153 10 123 127 119 100 73 103 105 99 86 76 78 57 59 51 23 11 64 109 100 105 117 123 117 119 121 88 60 113 151 164 170 176
261 165 212 253 281 221 184 174 162 169 149 144 78 112 108 104 75 87 77 77 74 74 75 66 56 46 10 2 78 101 117 115 112 111 113 119 115 115 109 89 126 108 143 175
258 282 270 193 245 196 130 98 95 73 57 83 105 89 103 93 82 79 74 76 79 78 62 52 55 42 353 8 61 74 77 75 93 107 118 123 135 130 129 150 148 97 122 121
218 229 270 307 224 95 95 135 129 114 116 95 88 99 100 105 93 91 92 92 87 73 59 56 58 39 4 25 63 68 74 67 74 83 80 99 110 104 107 107 106 108 67 61
171 247 223 186 183 146 138 126 124 115 111 107 104 98 96 92 90 69 47 46 85 79 44 51 52 11 2 49 73 70 69 75 67 79 85 88 90 108 113 111 113 111 102 100
152 240 232 205 164 138 115 87 96 96 108 110 112 114 119 115 107 101 92 88 90 79 55 44 47 13 22 47 83 96 94 81 85 77 74 79 92 101 108 112 126 125 133 169
346 10 19 13 123 125 106 107 111 101 86 105 107 109 109 106 111 110 105 105 94 74 42 11 30 30 48 54 73 81 84 84 76 90 91 82 83 89 94 105 117 130 124 80
40 52 40 58 55 84 78 69 69 93 102 101 100 94 91 82 88 91 77 77 69 76 18 354 24 35 39 46 45 58 99 106 97 89 100 110 98 104 121 132 139 140 144 140
54 70 69 60 59 57 88 70 66 73 69 94 99 94 88 76 74 77 76 74 49 39 331 356 27 38 30 23 33 35 52 63 83 81 94 103 110 117 119 127 141 152 157 167
36 66 78 83 78 68 64 71 78 71 59 68 91 91 92 76 71 69 78 78 4 9 37 45 48 40 31 25 44 52 54 56 53 44 44 55 73 87 114 118 143 171 186 201
38 68 78 83 89 81 65 72 79 81 77 83 88 93 100 85 88 79 54 96 298 4 44 45 40 51 49 46 45 52 54 63 72 71 71 66 100 169 262 254 244 245 231 227
63 75 88 96 89 84 74 68 68 77 75 70 92 90 82 79 60 95 80 356 33 49 49 27 30 60 58 48 49 58 65 64 46 28 233 225 236 230 228 236 243 243 244 244
82 78 77 81 91 89 86 78 82 78 82 73 67 55 89 92 63 38 48 49 52 50 31 23 59 59 56 38 24 15 19 269 252 251 250 240 235 241 245 244 252 247 249 248
69 79 84 89 89 87 95 96 90 77 78 65 53 43 39 38 89 67 45 36 45 55 41 10 33 37 36 12 337 315 292 265 252 241 243 245 248 244 248 242 242 246 242 242
55 60 61 59 74 84 86 85 84 70 81 77 55 35 37 34 49 53 40 45 37 36 32 0 2 16 4 320 290 280 279 279 274 265 256 257 254 255 251 253 248 249 245 245
59 59 71 68 45 47 54 67 81 69 53 74 84 37 40 37 30 34 21 19 12 6 9 341 346 351 327 304 297 288 282 278 275 267 257 256 253 252 254 251 247 244 246 243